Location: Solon
(41.3849°N, 81.4081°W)
Time: 02:37:34
(UTC-04:00)

Daily predictions for brighter satellites

Satellite Brightness Start Highest point End
(mag) Time Altitude Azimuth Time Altitude Azimuth Time Altitude Azimuth
Cosmos 2297 Rocket 4.4 03:33:43 19° ENE 03:33:43 19° ENE 03:36:16 10° NE
Cosmos 2344 4.0 03:37:35 59° ENE 03:37:35 59° ENE 03:44:34 10° NE
ATLAS 2AS CENTAUR R/B 4.3 03:58:45 29° NNW 03:58:45 29° NNW 04:04:56 10° NNE
SL-16 R/B 4.1 04:10:06 25° NNW 04:10:06 25° NNW 04:12:30 10° NNW
Lacrosse 5 3.3 04:24:08 34° NE 04:24:08 34° NE 04:27:01 10° NE
ATLAS 5 CENTAUR R/B 4.2 04:33:20 21° SSE 04:33:20 21° SSE 04:35:16 10° SSE
Okean O Rocket 3.4 04:25:21 10° NNE 04:28:31 30° ENE 04:28:31 30° ENE
Lacrosse 5 rocket 4.0 04:41:17 15° N 04:41:17 15° N 04:42:54 10° NNE
USA 215 3.1 04:39:06 10° SE 04:45:11 69° SSW 04:45:11 69° SSW
ADEOS Rocket 4.4 04:40:01 10° NNE 04:46:29 38° E 04:52:17 10° SSE
Meteor 1-19 Rocket 4.2 04:46:45 79° ENE 04:46:45 79° ENE 04:52:11 10° NNE
CZ-2D R/B 3.3 04:41:52 10° N 04:44:44 31° NNW 04:44:44 31° NNW
MOS 1-B 4.3 04:43:06 10° NNE 04:48:28 75° NNW 04:48:28 75° NNW
BREEZE-M DEB (TANK) 4.1 04:50:16 41° E 04:50:16 41° E 04:52:04 10° ENE
Meteor 2-4 Rocket 4.1 04:48:10 43° SSE 04:49:57 63° E 04:55:50 10° NNE
CENTAUR R/B 3.7 04:44:05 10° NNW 04:51:40 53° NE 04:59:45 10° SE
SL-16 R/B 2.4 04:51:08 10° NNW 04:56:50 71° ENE 05:02:28 10° SSE
IRS-1C Rocket 4.3 04:51:57 10° NNE 04:57:14 68° ESE 04:58:22 52° SSE
CZ-4B R/B 3.8 04:56:37 10° NNE 05:00:59 52° E 05:01:53 45° SE
Meteor 1-23 Rocket 4.4 04:59:59 40° S 05:02:01 72° E 05:07:43 10° NNE
Resurs 1-4 Rocket 3.4 04:57:24 10° N 05:00:21 28° NNW 05:00:21 28° NNW
NOSS 3-2 (C) 4.0 05:04:00 52° WSW 05:04:08 52° WSW 05:11:54 10° S
Cosmos 1898 Rocket 3.7 05:04:52 47° S 05:06:18 68° ESE 05:11:34 10° NNE
Cosmos 2227 Rocket 2.7 05:07:34 42° NW 05:07:34 42° NW 05:12:18 10° NNE
Okean 2 3.5 05:13:04 72° NE 05:13:04 72° NE 05:16:52 10° N
Cosmos 1937 Rocket 4.0 05:12:42 26° S 05:15:33 58° ESE 05:20:44 10° NNE
Cosmos 2297 Rocket 2.3 05:15:34 51° WNW 05:15:38 51° WNW 05:21:09 10° NNE
DELTA 2 R/B (1) 3.5 05:15:21 59° SSW 05:16:06 67° S 05:21:38 10° E
NOSS 2-2 (E) 4.5 05:16:26 34° SSE 05:17:39 44° ESE 05:22:09 10° NE
Cosmos 2016 Rocket 4.4 05:13:05 10° N 05:19:23 63° E 05:25:34 10° SSE
Tiangong 1 2.6 05:22:33 34° ENE 05:22:33 34° ENE 05:24:29 10° E
Cosmos 1727 Rocket 4.2 05:22:12 44° W 05:22:33 45° WNW 05:28:36 10° N
CZ-2C R/B 3.6 05:22:06 64° SW 05:22:35 70° WSW 05:27:14 10° NNW
Cosmos 2173 Rocket 3.8 05:18:20 10° N 05:24:28 88° W 05:30:38 10° S
EXPRESS MD2 3.3 05:24:17 63° N 05:24:30 65° NNE 05:29:45 10° ESE
ARIANE 5 R/B 4.4 05:23:05 10° NNW 05:24:33 15° NW 05:24:33 15° NW
Cosmos 2058 Rocket 2.9 05:23:21 10° N 05:27:43 81° W 05:32:05 10° S
NOSS 3-4 (A) 4.3 05:26:55 32° WNW 05:28:09 34° NW 05:34:07 10° NNE
NOSS 3-4 (C) 4.3 05:27:01 32° WNW 05:28:15 35° NW 05:34:14 10° NNE
Cosmos 1459 Rocket 3.9 05:22:44 10° N 05:29:09 80° W 05:35:25 10° S
Cosmos 1025 Rocket 4.3 05:33:24 26° NW 05:33:24 26° NW 05:35:47 10° N
Cosmos 1346 Rocket 3.6 05:33:38 36° NW 05:33:38 36° NW 05:36:28 10° N
FALCON 9 R/B 4.0 05:28:31 21° SSW 05:32:54 42° SE 05:52:37 10° E
Meteor 2-15 4.5 05:30:02 10° S 05:36:03 78° E 05:42:08 10° N
Okean-O 3.3 05:33:53 10° NNE 05:38:15 56° E 05:42:36 10° S
Cosmos 2123 Rocket 4.4 05:33:19 10° S 05:39:23 62° E 05:45:28 10° NNE
CZ-4B DEB 4.1 05:36:15 10° N 05:41:43 68° WNW 05:45:46 18° SSW
RESURS DK-1 4.1 05:44:06 19° NW 05:44:06 19° NW 05:46:23 10° N
Cosmos 1603 4.1 05:38:52 10° NNW 05:44:35 66° ENE 05:50:12 10° SSE
Cosmos 1626 Rocket 3.6 05:48:47 10° S 05:53:09 82° E 05:57:31 10° N
ADEOS II 2.1 05:48:57 10° NNE 05:54:15 89° ESE 05:59:31 10° SSW
Genesis I 3.2 05:54:19 23° SSW 05:56:42 82° ESE 06:00:42 10° NE
Meteor 2-15 Rocket 4.3 05:50:47 10° S 05:56:51 84° W 06:02:58 10° N
MOS 1 Rocket 4.0 05:52:07 10° NNE 05:56:58 60° E 06:02:04 10° S
BREEZE-M DEB (TANK) 3.7 05:46:02 10° WNW 06:00:56 87° NNE 06:04:50 10° ESE
Cosmos 192 4.2 05:56:33 10° NNW 06:01:30 72° WSW 06:06:22 10° S
ASTRO F (AKARI) 4.4 06:00:14 10° S 06:03:17 47° W 06:06:29 10° NNW
Okean O Rocket 2.7 06:02:01 10° NNW 06:05:30 23° WNW 06:05:58 23° WNW
Lacrosse 5 3.5 06:03:21 16° WNW 06:05:39 21° NNW 06:09:29 10° NNE
Meteor 1-31 Rocket 3.2 06:03:44 10° NNE 06:07:38 66° E 06:11:33 10° S
COBE Rocket 3.9 06:03:58 10° NNE 06:08:44 77° E 06:13:23 10° S
Cosmos 1515 3.6 06:05:32 10° SSW 06:09:20 71° W 06:13:10 10° N
ATLAS 5 CENTAUR R/B 4.2 06:15:05 12° SW 06:15:05 12° SW 06:16:02 10° SW
Cosmos 990 Rocket 4.1 06:08:56 10° SW 06:14:06 56° WNW 06:19:17 10° NNE
USA 129 1.4 06:12:33 10° SSE 06:14:21 67° ENE 06:15:59 10° N
Cosmos 972 Rocket 4.3 06:11:43 10° SSW 06:17:15 73° WNW 06:23:33 10° NNE
Cosmos 1602 Rocket 3.7 06:13:22 10° SSW 06:17:42 53° W 06:22:02 10° N
CZ-4B R/B 4.0 06:13:03 10° N 06:17:46 31° WNW 06:22:01 12° WSW
Cosmos 1340 3.0 06:14:34 10° S 06:18:20 70° E 06:22:08 10° NNE
Lacrosse 5 rocket 4.1 06:20:13 10° N 06:21:05 10° N 06:21:57 10° NNE
PSLV R/B 4.1 06:17:30 10° N 06:21:29 37° WNW 06:25:25 10° SW
Ariane Rocket 4.2 06:18:01 10° NNE 06:22:57 46° E 06:27:51 10° S
OAO 2 Rocket 4.3 06:20:39 14° WSW 06:24:45 41° S 06:29:43 10° ESE
CZ-4B R/B 3.6 06:21:02 10° N 06:24:55 80° WNW 06:28:38 10° SSW
Thor Agena Rocket 4.2 06:20:31 10° SSW 06:25:15 33° W 06:30:01 10° NNW
Cosmos 1269 Rocket 4.4 06:20:26 10° NNW 06:25:43 71° ENE 06:30:59 10° SSE
Cosmos 2233 Rocket 4.1 06:19:36 10° N 06:25:55 85° E 06:32:08 10° S
SKYMED 2 4.3 06:22:49 10° SSE 06:27:04 58° ENE 06:31:21 10° N
Meteor PRIRODA 4.1 06:24:01 10° N 06:27:33 41° WNW 06:31:02 10° SW
Cosmos 2228 4.1 06:24:12 10° NW 06:27:45 24° W 06:31:15 10° SW
Cosmos 2227 4.4 06:23:07 10° SW 06:28:42 52° WNW 06:34:21 10° NNE
Cosmos 1174 4.0 06:28:48 10° NW 06:31:35 32° WSW 06:34:40 10° S
ADEOS Rocket 3.8 06:25:30 10° N 06:31:55 38° WNW 06:37:44 10° SW
Cosmos 2084 Rocket 3.4 06:28:20 10° NNW 06:32:14 79° NE 06:36:18 10° SE
Radarsat Rocket 4.3 06:28:11 10° NNE 06:34:51 77° ESE 06:40:50 10° SSW
SL-16 R/B 3.6 06:36:59 10° WNW 06:40:15 16° W 06:43:30 10° SW
CENTAUR R/B 3.5 06:35:03 10° NW 06:42:24 42° WSW 06:50:02 10° S
Cosmos 372 Rocket 4.5 06:37:49 10° S 06:42:51 65° ESE 06:47:56 10° NNE
Cosmos 1812 Rocket 4.0 06:38:43 10° NNW 06:42:53 40° W 06:47:03 10° SSW
Cosmos 1725 Rocket 4.3 06:38:03 10° NNW 06:43:55 42° W 06:49:44 10° SSW
Cosmos 1066 Rocket 4.4 06:46:38 10° SSW 06:52:09 54° WNW 06:57:52 10° N
Cosmos 1125 Rocket 3.5 06:49:46 10° SSW 06:54:53 62° WNW 07:00:04 10° NNE
